Parsons, KS

9:25 PM CDT on August 17, 2017 (GMT -0500)
Tri-City

Weather History for KPPF - September, 2013

Change the Weather History Date:

Saturday, September 21, 2013

  Actual Average Record
Temperature  
Mean Temperature 63 °F -  
Max Temperature 79 °F 78 °F 98 °F (1955)
Min Temperature 48 °F 56 °F 34 °F (1983)
Degree Days  
Heating Degree Days 2    
Growing Degree Days 13 (Base 50)    
Moisture  
Dew Point 51 °F    
Average Humidity 72    
Maximum Humidity 93    
Minimum Humidity 39    
Precipitation  
Precipitation 0.00 in - - ()
Sea Level Pressure  
Sea Level Pressure 29.99 in    
Wind  
Wind Speed 1 mph (NE)    
Max Wind Speed 6 mph    
Max Gust Speed -    
Visibility 10 miles    
Events      
Averages and records for this station are not official NWS values.
T = Trace of Precipitation, MM = Missing Value Source: NWS Daily Summary

Daily Weather History Graph

Daily Weather History Graph

Search for Another Location

Airport or City:

Trip Planner

Search our weather history database for the weather conditions in past years. The results will help you decide how hot, cold, wet, or windy it might be!

Date:

Astronomy

Sep. 21, 2013 Rise Set
Actual Time 7:09 AM CDT 7:20 PM CDT
Civil Twilight 6:43 AM CDT 7:46 PM CDT
Nautical Twilight 6:12 AM CDT 8:16 PM CDT
Astronomical Twilight 5:41 AM CDT 8:47 PM CDT
Moon 8:35 PM CDT (9/21) 9:24 AM CDT (9/21)
Length of Visible Light 13h 02m
Length of Day
12h 10m
Waning Gibbous, 94% of the Moon is Illuminated
Sep 21
Waning Gibbous
Sep 26
Last Quarter
Oct 4
New
Oct 11
First Quarter
Oct 18
Full

Hourly Weather History & Observations

Time (CDT) Temp. Dew Point Humidity Pressure Visibility Wind Dir Wind Speed Gust Speed Precip Events Conditions
12:52 AM 52.0 °F 48.9 °F 89% 30.01 in 10.0 mi Calm Calm - N/A   Clear
1:52 AM 51.1 °F 48.9 °F 92% 30.01 in 10.0 mi Calm Calm - N/A   Clear
2:52 AM 50.0 °F 48.0 °F 93% 30.01 in 10.0 mi Calm Calm - N/A   Clear
3:52 AM 50.0 °F 46.9 °F 89% 30.01 in 9.0 mi Calm Calm - N/A   Clear
4:52 AM 48.9 °F 46.9 °F 93% 30.01 in 10.0 mi Calm Calm - N/A   Clear
5:52 AM 48.9 °F 46.9 °F 93% 30.02 in 10.0 mi Calm Calm - N/A   Clear
6:52 AM 48.9 °F 46.0 °F 90% 30.03 in 10.0 mi Calm Calm - N/A   Clear
7:52 AM 50.0 °F 46.9 °F 89% 30.04 in 10.0 mi Calm Calm - N/A   Clear
8:52 AM 60.1 °F 54.0 °F 80% 30.05 in 10.0 mi Calm Calm - N/A   Clear
9:52 AM 66.0 °F 54.0 °F 65% 30.05 in 10.0 mi Calm Calm - N/A   Clear
10:52 AM 70.0 °F 51.1 °F 51% 30.06 in 10.0 mi Variable 4.6 mph - N/A   Clear
11:52 AM 72.0 °F 50.0 °F 46% 30.05 in 10.0 mi Variable 3.5 mph - N/A   Clear
12:52 PM 75.0 °F 48.9 °F 40% 30.02 in 10.0 mi North 5.8 mph - N/A   Clear
1:52 PM 75.0 °F 48.9 °F 40% 30.01 in 10.0 mi ENE 4.6 mph - N/A   Clear
2:52 PM 77.0 °F 50.0 °F 39% 29.98 in 10.0 mi ENE 3.5 mph - N/A   Clear
3:52 PM 78.1 °F 51.1 °F 39% 29.96 in 10.0 mi Calm Calm - N/A   Clear
4:52 PM 78.1 °F 51.1 °F 39% 29.95 in 10.0 mi Calm Calm - N/A   Clear
5:52 PM 77.0 °F 51.1 °F 40% 29.94 in 10.0 mi Calm Calm - N/A   Clear
6:52 PM 70.0 °F 59.0 °F 68% 29.94 in 10.0 mi Calm Calm - N/A   Clear
7:52 PM 62.1 °F 57.9 °F 86% 29.94 in 10.0 mi Calm Calm - N/A   Clear
8:52 PM 60.1 °F 57.0 °F 90% 29.94 in 10.0 mi Calm Calm - N/A   Clear
9:52 PM 57.9 °F 55.0 °F 90% 29.95 in 10.0 mi Calm Calm - N/A   Clear
10:52 PM 57.0 °F 54.0 °F 89% 29.95 in 10.0 mi Calm Calm - N/A   Clear
11:52 PM 55.0 °F 53.1 °F 93% 29.95 in 10.0 mi Calm Calm - N/A   Clear